DL1NER Weather Reports


time (UTC)temp
C
wind
direction
speed
KPH
gust
KPH
rain 1hr
cm
rain 24hr
cm
rain mn
cm
humidity
%
barometer
mb
20260903172012 22 260 8.0 22.5 0.00 0.00 0.00 53 1019.5
20260903171013 22 258 14.5 29.0 0.00 0.00 0.00 53 1019.6
20260903170012 22 230 9.7 29.0 0.00 0.00 0.00 53 1019.5
20260903165012 22 256 8.0 16.1 0.00 0.00 0.00 52 1019.3
20260903164012 22 222 8.0 22.5 0.00 0.00 0.00 53 1019.2
20260903163012 22 219 6.4 17.7 0.00 0.00 0.00 52 1019.3
20260903162012 22 259 3.2 12.9 0.00 0.00 0.00 53 1019.3
20260903161012 22 232 6.4 17.7 0.00 0.00 0.00 53 1019.4
20260903160012 22 228 4.8 12.9 0.00 0.00 0.00 53 1019.3
20260903155012 22 254 6.4 16.1 0.00 0.00 0.00 54 1019.3
20260903154012 22 223 4.8 12.9 0.00 0.00 0.00 54 1019.5
20260903153012 22 223 4.8 12.9 0.00 0.00 0.00 54 1019.5
20260903152012 22 252 4.8 12.9 0.00 0.00 0.00 54 1019.5
20260903151012 22 198 6.4 14.5 0.00 0.00 0.00 52 1019.4
20260903150012 22 211 3.2 9.7 0.00 0.00 0.00 53 1019.5
20260903145011 22 231 3.2 9.7 0.00 0.00 0.00 54 1019.7
20260903144011 22 203 4.8 12.9 0.00 0.00 0.00 54 1019.7
20260903143012 22 248 4.8 12.9 0.00 0.00 0.00 56 1019.9
20260903142011 22 173 6.4 19.3 0.00 0.00 0.00 53 1019.9
20260903141011 22 209 8.0 20.9 0.00 0.00 0.00 53 1020.0
20260903140011 22 271 8.0 17.7 0.00 0.00 0.00 54 1019.9
20260903135011 22 252 8.0 19.3 0.00 0.00 0.00 53 1020.1
20260903134011 22 269 8.0 19.3 0.00 0.00 0.00 53 1020.3
20260903133011 22 257 9.7 20.9 0.00 0.00 0.00 51 1020.3
20260903132011 23 283 12.9 32.2 0.00 0.00 0.00 53 1020.3
20260903131011 23 233 9.7 20.9 0.00 0.00 0.00 51 1020.5
20260903130011 23 281 9.7 20.9 0.00 0.00 0.00 52 1020.5
20260903125011 23 238 6.4 14.5 0.00 0.00 0.00 52 1020.3
20260903124011 23 274 9.7 27.4 0.00 0.00 0.00 52 1020.2
20260903123011 23 292 9.7 22.5 0.00 0.00 0.00 52 1020.2
20260903122011 23 242 6.4 20.9 0.00 0.00 0.00 52 1020.3
20260903121011 23 227 8.0 29.0 0.00 0.00 0.00 51 1020.5
20260903120011 23 236 8.0 20.9 0.00 0.00 0.00 52 1020.5
20260903115011 23 219 8.0 19.3 0.00 0.00 0.00 53 1020.6
20260903114011 23 238 9.7 22.5 0.00 0.00 0.00 52 1020.8
20260903113011 23 280 9.7 19.3 0.00 0.00 0.00 51 1020.8
20260903112011 23 240 11.3 20.9 0.00 0.00 0.00 50 1020.9
20260903111011 23 269 3.2 16.1 0.00 0.00 0.00 52 1020.9
20260903110011 23 245 6.4 17.7 0.00 0.00 0.00 50 1021.0
20260903105011 22 188 8.0 20.9 0.00 0.00 0.00 54 1021.2
20260903104011 22 211 6.4 20.9 0.00 0.00 0.00 53 1021.3
20260903103011 21 192 3.2 9.7 0.00 0.00 0.00 55 1021.4
20260903102011 21 168 6.4 16.1 0.00 0.00 0.00 53 1021.4
20260903101011 21 212 6.4 14.5 0.00 0.00 0.00 52 1021.7
20260903100011 21 245 8.0 19.3 0.00 0.00 0.00 55 1021.8
20260903095011 21 254 9.7 22.5 0.00 0.00 0.00 52 1021.7
20260903094011 21 286 8.0 17.7 0.00 0.00 0.00 52 1021.7
20260903093009 21 245 9.7 19.3 0.00 0.00 0.00 55 1021.4
20260903092019 21 245 9.7 19.3 0.00 0.00 0.00 55 1021.4
20260903091011 20 264 11.3 19.3 0.00 0.00 0.00 56 1021.5
20260903090010 20 282 9.7 25.7 0.00 0.00 0.00 59 1021.4
20260903085010 20 244 11.3 22.5 0.00 0.00 0.00 56 1021.5
20260903084009 20 216 6.4 14.5 0.00 0.00 0.00 59 1021.6
20260903083009 20 262 4.8 14.5 0.00 0.00 0.00 61 1021.6
20260903082009 19 251 6.4 16.1 0.00 0.00 0.00 61 1021.5
20260903081009 19 223 4.8 12.9 0.00 0.00 0.00 65 1021.4
20260903080009 18 250 4.8 14.5 0.00 0.00 0.00 63 1021.2
20260903075009 18 250 4.8 14.5 0.00 0.00 0.00 63 1021.2
20260903074009 18 236 4.8 16.1 0.00 0.00 0.00 66 1021.5
20260903073009 17 234 4.8 16.1 0.00 0.00 0.00 69 1021.6
20260903072009 16 267 6.4 12.9 0.00 0.00 0.00 71 1021.8
20260903071009 15 273 1.6 11.3 0.00 0.00 0.00 75 1021.8
20260903070009 14 303 0.0 0.0 0.00 0.00 0.00 78 1021.7
20260903065010 13 303 0.0 3.2 0.00 0.00 0.00 81 1021.7
20260903064009 13 303 0.0 1.6 0.00 0.00 0.00 82 1021.7
20260903063009 13 303 0.0 3.2 0.00 0.00 0.00 85 1021.8
20260903062009 12 303 0.0 0.0 0.00 0.00 0.00 90 1021.7
20260903061010 12 302 0.0 0.0 0.00 0.00 0.00 91 1021.8
20260903060009 12 302 0.0 0.0 0.00 0.00 0.00 91 1021.9
20260903055009 11 302 0.0 0.0 0.00 0.00 0.00 91 1021.8
20260903054009 11 302 1.6 4.8 0.00 0.00 0.00 91 1021.8
20260903053009 11 309 1.6 4.8 0.00 0.00 0.00 91 1021.5
20260903052009 10 313 0.0 3.2 0.00 0.00 0.00 89 1021.4
20260903051008 10 313 0.0 0.0 0.00 0.00 0.00 88 1021.3
20260903050009 10 313 0.0 0.0 0.00 0.00 0.00 87 1021.2
20260903045009 11 313 0.0 0.0 0.00 0.00 0.00 86 1021.1
20260903044009 11 313 0.0 0.0 0.00 0.00 0.00 85 1021.1
20260903043009 11 313 0.0 0.0 0.00 0.00 0.00 85 1021.3
20260903042014 11 313 0.0 0.0 0.00 0.00 0.00 84 1021.3
20260903041008 11 313 0.0 0.0 0.00 0.00 0.00 84 1021.3
20260903040009 11 313 0.0 0.0 0.00 0.00 0.00 84 1021.3
20260903035008 11 313 0.0 0.0 0.00 0.00 0.00 84 1021.3
20260903034008 11 313 0.0 0.0 0.00 0.00 0.00 84 1021.4
20260903033008 12 313 0.0 0.0 0.00 0.00 0.00 83 1021.3
20260903032008 12 313 0.0 0.0 0.00 0.00 0.00 83 1021.3
20260903031008 12 313 0.0 0.0 0.00 0.00 0.00 82 1021.3
20260903030008 12 313 1.6 3.2 0.00 0.00 0.00 82 1021.3
20260903025008 12 313 3.2 4.8 0.00 0.00 0.00 80 1021.4
20260903024008 12 313 3.2 4.8 0.00 0.00 0.00 80 1021.4
20260903023021 12 313 3.2 4.8 0.00 0.00 0.00 79 1021.4
20260903022012 12 313 1.6 4.8 0.00 0.00 0.00 78 1021.3
20260903021012 13 313 0.0 0.0 0.00 0.00 0.00 77 1021.1
20260903020012 13 313 0.0 0.0 0.00 0.00 0.00 76 1021.2
20260903015012 13 313 0.0 0.0 0.00 0.00 0.00 76 1021.2
20260903014012 13 313 0.0 0.0 0.00 0.00 0.00 74 1021.2
20260903013012 13 313 0.0 3.2 0.00 0.00 0.00 74 1021.3
20260903012012 13 313 0.0 3.2 0.00 0.00 0.00 74 1021.4
20260903011012 14 313 1.6 3.2 0.00 0.00 0.00 73 1021.3
20260903010012 14 313 1.6 3.2 0.00 0.00 0.00 74 1021.2
20260903005012 14 313 0.0 3.2 0.00 0.00 0.00 73 1021.2
20260903004012 14 313 1.6 4.8 0.00 0.00 0.00 72 1021.1
20260903003012 14 313 1.6 4.8 0.00 0.00 0.00 72 1021.1
20260903002011 15 313 3.2 4.8 0.00 0.00 0.00 72 1021.1
20260903001011 15 313 1.6 4.8 0.00 0.00 0.00 72 1021.1
20260903000011 15 313 1.6 6.4 0.00 0.00 0.00 72 1021.0
20260902235011 15 313 0.0 0.0 0.00 0.00 0.00 71 1021.0
20260902234011 15 313 1.6 3.2 0.00 0.00 0.00 71 1021.0
20260902233012 15 313 1.6 4.8 0.00 0.00 0.00 71 1021.2
20260902232012 15 313 1.6 6.4 0.00 0.00 0.00 71 1021.1
20260902231011 16 325 1.6 4.8 0.00 0.00 0.00 70 1021.0
20260902230011 16 325 0.0 4.8 0.00 0.00 0.00 70 1021.1
20260902225011 16 325 0.0 0.0 0.00 0.00 0.00 70 1021.1
20260902224011 16 325 0.0 0.0 0.00 0.00 0.00 70 1021.1
20260902223011 16 325 0.0 0.0 0.00 0.00 0.00 69 1021.1
20260902222011 16 325 0.0 0.0 0.00 0.00 0.00 70 1021.2
20260902221011 16 325 0.0 0.0 0.00 0.00 0.00 69 1021.1
20260902220011 16 325 0.0 0.0 0.00 0.00 0.00 69 1021.0
20260902215011 16 325 0.0 0.0 0.00 0.00 0.00 69 1021.0
20260902214011 16 325 0.0 3.2 0.00 0.00 0.00 69 1021.1
20260902213011 16 325 1.6 4.8 0.00 0.00 0.00 68 1021.0
20260902212011 16 325 0.0 0.0 0.00 0.00 0.00 68 1021.1
20260902211011 17 325 1.6 4.8 0.00 0.00 0.00 68 1021.0
20260902210011 17 325 1.6 4.8 0.00 0.00 0.00 68 1021.0
20260902205011 17 325 3.2 4.8 0.00 0.00 0.00 68 1020.9
20260902204011 17 325 3.2 4.8 0.00 0.00 0.00 67 1020.8
20260902203010 17 325 3.2 4.8 0.00 0.00 0.00 66 1020.8
20260902202010 17 325 1.6 4.8 0.00 0.00 0.00 66 1020.7
20260902201010 17 325 1.6 4.8 0.00 0.00 0.00 66 1020.5
20260902200010 17 325 0.0 3.2 0.00 0.00 0.00 65 1020.5
20260902195010 17 325 1.6 4.8 0.00 0.00 0.00 64 1020.5
20260902194010 17 325 3.2 4.8 0.00 0.00 0.00 65 1020.5
20260902193010 18 325 3.2 4.8 0.00 0.00 0.00 64 1020.4
20260902192010 18 325 0.0 4.8 0.00 0.00 0.00 63 1020.5
20260902191010 18 325 0.0 0.0 0.00 0.00 0.00 62 1020.4
20260902190010 18 325 0.0 0.0 0.00 0.00 0.00 61 1020.2
20260902185010 18 325 0.0 0.0 0.00 0.00 0.00 60 1020.2
20260902184010 19 325 1.6 3.2 0.00 0.00 0.00 59 1020.0
20260902183010 19 325 1.6 3.2 0.00 0.00 0.00 58 1019.9
20260902182010 20 325 0.0 0.0 0.00 0.00 0.00 57 1019.8
20260902181010 20 325 0.0 0.0 0.00 0.00 0.00 56 1019.7
20260902180011 20 325 1.6 3.2 0.00 0.00 0.00 55 1019.6
20260902175010 21 325 0.0 3.2 0.00 0.00 0.00 55 1019.5
20260902174010 21 325 3.2 6.4 0.00 0.00 0.00 54 1019.5
20260902173009 21 321 3.2 8.0 0.00 0.00 0.00 53 1019.4